Location: Unspecified
(0.0000°N, 0.0000°E)
Time: 11:51:34
(UTC+00:00)

Courier 1B - Visible Passes

Search period start: 03 May 2015 00:00
Search period end: 13 May 2015 00:00
Orbit: 963 x 1209 km, 28.3° (Epoch: 01 May)

Date Brightness Start Highest point End Pass type
(mag) Time Alt. Az. Time Alt. Az. Time Alt. Az.
03 May 9.7 03:15:20 14° N 03:15:20 14° N 03:16:55 10° NNE visible
06 May 9.8 19:45:08 10° S 19:45:49 11° S 19:45:49 11° S visible
08 May 9.5 19:49:30 10° SSW 19:52:29 17° S 19:52:29 17° S visible
09 May 9.4 18:56:21 10° SSW 19:00:30 15° SSE 19:02:29 14° SE visible
09 May 10.0 20:48:29 10° SW 20:49:26 14° SW 20:49:26 14° SW visible
10 May 8.9 19:54:51 10° SW 19:59:33 29° S 19:59:33 29° S visible
11 May 8.9 19:01:23 10° SSW 19:07:33 25° SSE 19:09:47 22° SE visible
11 May 9.7 20:54:33 10° SW 20:56:44 21° SW 20:56:44 21° SW visible
12 May 8.1 20:00:41 10° SW 20:07:06 52° S 20:07:06 52° S visible
